Location: Newark
(42.7133°N, 87.7910°W)
Time: 22:29:39
(UTC+00:00)

Tiros 1 - Pass Details

Date: 27 September 2019
Orbit: 630 x 664 km, 48.4° (Epoch: 16 October)

Event Time Altitude Azimuth Distance (km) Brightness Sun altitude
Rises 15:12:41 0° 212° (SSW) 2,980 10.7 34.3°
Reaches altitude 10° 15:15:13 10° 202° (SSW) 2,068 10.1 34.6°
Maximum altitude 15:19:26 32° 140° (SE) 1,132 11.5 35.2°
Drops below altitude 10° 15:23:39 10° 78° (ENE) 2,062 10.2 35.8°
Sets 15:26:10 0° 68° (ENE) 2,970 10.8 36.1°
